IZ1GCT Weather Reports


Display with metric or nautical units.
time (UTC)temp
F
wind
direction
speed
MPH
gust
MPH
rain 1hr
in
rain 24hr
in
rain mn
in
humidity
%
barometer
mb
20260901154903 86 116 9.0 14.0 0.00 0.00 0.00 30 1021.0
20260901154402 86 134 3.0 5.0 0.00 0.00 0.00 30 1021.0
20260901153902 86 126 8.0 16.0 0.00 0.00 0.00 30 1021.0
20260901153402 86 135 6.0 10.0 0.00 0.00 0.00 30 1020.9
20260901152903 86 125 8.0 14.0 0.00 0.00 0.00 30 1020.8
20260901152403 86 139 9.0 14.0 0.00 0.00 0.00 30 1020.9
20260901151902 86 135 9.0 14.0 0.00 0.00 0.00 30 1020.7
20260901151403 86 135 7.0 9.0 0.00 0.00 0.00 30 1020.7
20260901150903 86 135 9.0 14.0 0.00 0.00 0.00 30 1020.9
20260901150402 86 112 12.0 17.0 0.00 0.00 0.00 30 1020.9
20260901145903 86 135 8.0 10.0 0.00 0.00 0.00 30 1020.8
20260901145402 86 138 7.0 9.0 0.00 0.00 0.00 30 1020.8
20260901144903 85 144 9.0 13.0 0.00 0.00 0.00 30 1020.9
20260901144402 86 132 9.0 15.0 0.00 0.00 0.00 30 1021.0
20260901143902 85 135 13.0 17.0 0.00 0.00 0.00 30 1021.0
20260901143403 86 158 8.0 9.0 0.00 0.00 0.00 30 1021.0
20260901142902 86 153 6.0 10.0 0.00 0.00 0.00 30 1021.0
20260901142401 85 112 7.0 13.0 0.00 0.00 0.00 30 1021.0
20260901141903 86 158 9.0 17.0 0.00 0.00 0.00 28 1021.0
20260901141403 86 132 12.0 16.0 0.00 0.00 0.00 28 1021.1
20260901140902 85 126 8.0 12.0 0.00 0.00 0.00 30 1021.1
20260901140402 85 114 8.0 14.0 0.00 0.00 0.00 30 1021.0
20260901135903 86 112 12.0 17.0 0.00 0.00 0.00 30 1021.0
20260901135403 86 112 8.0 14.0 0.00 0.00 0.00 30 1021.0
20260901134902 86 145 7.0 13.0 0.00 0.00 0.00 29 1021.1
20260901134401 86 121 7.0 9.0 0.00 0.00 0.00 30 1021.0
20260901133903 86 124 8.0 12.0 0.00 0.00 0.00 28 1021.1
20260901133403 86 158 12.0 18.0 0.00 0.00 0.00 28 1021.0
20260901132903 86 124 3.0 6.0 0.00 0.00 0.00 30 1021.1
20260901132402 86 117 6.0 12.0 0.00 0.00 0.00 29 1021.2
20260901131903 85 158 7.0 10.0 0.00 0.00 0.00 30 1021.1
20260901131403 85 122 16.0 20.0 0.00 0.00 0.00 30 1021.2
20260901130902 85 154 8.0 15.0 0.00 0.00 0.00 30 1021.0
20260901130403 85 123 6.0 13.0 0.00 0.00 0.00 30 1021.2
20260901125902 85 135 6.0 10.0 0.00 0.00 0.00 30 1021.2
20260901125401 85 136 9.0 13.0 0.00 0.00 0.00 30 1021.3
20260901124903 84 112 12.0 17.0 0.00 0.00 0.00 30 1021.2
20260901124403 85 146 10.0 13.0 0.00 0.00 0.00 30 1021.3
20260901123902 85 132 8.0 15.0 0.00 0.00 0.00 30 1021.3
20260901123402 85 123 10.0 14.0 0.00 0.00 0.00 30 1021.3
20260901122903 85 114 10.0 13.0 0.00 0.00 0.00 30 1021.4
20260901122402 85 144 9.0 14.0 0.00 0.00 0.00 28 1021.3
20260901121902 85 112 8.0 14.0 0.00 0.00 0.00 30 1021.3
20260901121402 85 117 10.0 14.0 0.00 0.00 0.00 30 1021.2
20260901120902 85 121 5.0 8.0 0.00 0.00 0.00 30 1021.4
20260901120403 85 158 8.0 10.0 0.00 0.00 0.00 30 1021.3
20260901115903 85 158 6.0 8.0 0.00 0.00 0.00 30 1021.3
20260901115402 85 135 9.0 13.0 0.00 0.00 0.00 30 1021.3
20260901114901 85 135 6.0 10.0 0.00 0.00 0.00 28 1021.4
20260901114403 85 143 6.0 8.0 0.00 0.00 0.00 28 1021.5
20260901113903 86 135 9.0 13.0 0.00 0.00 0.00 27 1021.5
20260901113403 86 112 8.0 10.0 0.00 0.00 0.00 26 1021.5
20260901112903 86 132 8.0 12.0 0.00 0.00 0.00 26 1021.5
20260901112402 87 135 3.0 6.0 0.00 0.00 0.00 26 1021.6
20260901111902 86 117 3.0 9.0 0.00 0.00 0.00 27 1021.5
20260901111403 86 125 5.0 9.0 0.00 0.00 0.00 28 1021.7
20260901110903 86 135 6.0 9.0 0.00 0.00 0.00 28 1021.7
20260901110402 85 112 5.0 6.0 0.00 0.00 0.00 28 1021.7
20260901105903 86 135 7.0 8.0 0.00 0.00 0.00 27 1021.8
20260901105402 87 139 9.0 10.0 0.00 0.00 0.00 26 1021.8
20260901104902 86 135 3.0 6.0 0.00 0.00 0.00 27 1021.9
20260901104403 85 153 6.0 9.0 0.00 0.00 0.00 25 1021.9
20260901103902 85 131 6.0 8.0 0.00 0.00 0.00 26 1022.0
20260901103401 85 117 6.0 10.0 0.00 0.00 0.00 26 1022.0
20260901102903 84 126 3.0 7.0 0.00 0.00 0.00 25 1022.1
20260901102402 85 112 6.0 10.0 0.00 0.00 0.00 24 1022.2
20260901101901 84 122 7.0 9.0 0.00 0.00 0.00 25 1022.2
20260901101402 85 137 3.0 12.0 0.00 0.00 0.00 23 1022.2
20260901100902 85 112 5.0 8.0 0.00 0.00 0.00 22 1022.2
20260901100401 85 135 7.0 10.0 0.00 0.00 0.00 21 1022.3
20260901095902 85 112 9.0 13.0 0.00 0.00 0.00 21 1022.3
20260901095403 85 116 5.0 7.0 0.00 0.00 0.00 21 1022.4
20260901094903 86 135 3.0 5.0 0.00 0.00 0.00 21 1022.3
20260901094402 86 135 3.0 6.0 0.00 0.00 0.00 21 1022.4
20260901093903 85 135 3.0 5.0 0.00 0.00 0.00 21 1022.4
20260901093402 86 135 1.0 2.0 0.00 0.00 0.00 20 1022.3
20260901092902 85 135 2.0 3.0 0.00 0.00 0.00 20 1022.4
20260901092403 87 135 3.0 5.0 0.00 0.00 0.00 20 1022.4
20260901091903 87 135 2.0 5.0 0.00 0.00 0.00 19 1022.4
20260901091402 88 135 1.0 2.0 0.00 0.00 0.00 17 1022.4
20260901090903 86 135 0.0 1.0 0.00 0.00 0.00 20 1022.4
20260901090403 85 135 2.0 3.0 0.00 0.00 0.00 19 1022.4
20260901085903 87 135 2.0 3.0 0.00 0.00 0.00 20 1022.5
20260901085402 87 135 0.0 2.0 0.00 0.00 0.00 20 1022.4
20260901084903 86 135 2.0 3.0 0.00 0.00 0.00 20 1022.5
20260901084402 85 135 2.0 2.0 0.00 0.00 0.00 20 1022.5
20260901083901 83 135 2.0 3.0 0.00 0.00 0.00 20 1022.5
20260901083403 82 135 2.0 3.0 0.00 0.00 0.00 20 1022.5
20260901082902 82 135 2.0 3.0 0.00 0.00 0.00 21 1022.6
20260901082402 82 135 2.0 3.0 0.00 0.00 0.00 20 1022.6
20260901081901 82 135 2.0 2.0 0.00 0.00 0.00 20 1022.5
20260901081403 81 135 1.0 2.0 0.00 0.00 0.00 23 1022.5
20260901080902 80 135 2.0 5.0 0.00 0.00 0.00 23 1022.5
20260901080402 80 135 1.0 2.0 0.00 0.00 0.00 23 1022.6
20260901075903 79 135 1.0 3.0 0.00 0.00 0.00 23 1022.6
20260901075403 78 135 3.0 5.0 0.00 0.00 0.00 23 1022.5
20260901074902 78 135 2.0 3.0 0.00 0.00 0.00 23 1022.5
20260901074403 78 135 5.0 6.0 0.00 0.00 0.00 23 1022.5
20260901073903 78 135 2.0 3.0 0.00 0.00 0.00 24 1022.5
20260901073402 78 135 3.0 6.0 0.00 0.00 0.00 23 1022.6
20260901072903 77 135 3.0 5.0 0.00 0.00 0.00 24 1022.6
20260901072403 76 135 3.0 6.0 0.00 0.00 0.00 25 1022.6
20260901071901 76 135 5.0 6.0 0.00 0.00 0.00 24 1022.7
20260901071403 77 135 5.0 8.0 0.00 0.00 0.00 24 1022.6
20260901070902 76 135 2.0 3.0 0.00 0.00 0.00 25 1022.7
20260901070402 75 135 5.0 6.0 0.00 0.00 0.00 26 1022.6
20260901065901 74 135 8.0 9.0 0.00 0.00 0.00 26 1022.7
20260901065401 74 135 5.0 8.0 0.00 0.00 0.00 26 1022.7
20260901064903 74 135 5.0 8.0 0.00 0.00 0.00 28 1022.6
20260901064402 74 135 6.0 7.0 0.00 0.00 0.00 26 1022.8
20260901063903 74 135 7.0 9.0 0.00 0.00 0.00 26 1022.8
20260901063402 73 151 7.0 8.0 0.00 0.00 0.00 27 1022.7
20260901062902 73 135 3.0 5.0 0.00 0.00 0.00 30 1022.6
20260901062401 73 135 3.0 6.0 0.00 0.00 0.00 30 1022.8
20260901061903 72 135 3.0 3.0 0.00 0.00 0.00 32 1022.7
20260901061402 72 135 2.0 3.0 0.00 0.00 0.00 36 1022.8
20260901060901 70 135 1.0 3.0 0.00 0.00 0.00 37 1022.6
20260901060403 69 146 2.0 3.0 0.00 0.00 0.00 41 1022.6
20260901055902 68 158 2.0 3.0 0.00 0.00 0.00 41 1022.6
20260901055401 66 135 1.0 2.0 0.00 0.00 0.00 42 1022.4
20260901054903 67 158 2.0 5.0 0.00 0.00 0.00 42 1022.5
20260901054402 65 158 1.0 2.0 0.00 0.00 0.00 44 1022.4
20260901053901 63 135 0.0 1.0 0.00 0.00 0.00 50 1022.2
20260901053403 63 135 3.0 5.0 0.00 0.00 0.00 48 1022.3
20260901052903 63 135 0.0 1.0 0.00 0.00 0.00 46 1022.2
20260901052402 64 135 2.0 3.0 0.00 0.00 0.00 43 1022.1
20260901051901 63 135 2.0 3.0 0.00 0.00 0.00 45 1022.1
20260901051134 64 135 0.0 2.0 0.00 0.00 0.00 42 1021.8
20260901050635 64 135 2.0 3.0 0.00 0.00 0.00 41 1022.0
20260901050134 64 158 3.0 5.0 0.00 0.00 0.00 41 1021.9
20260901045635 64 135 3.0 5.0 0.00 0.00 0.00 41 1021.8
20260901045134 64 147 0.0 1.0 0.00 0.00 0.00 40 1021.8
20260901044633 64 153 0.0 2.0 0.00 0.00 0.00 41 1021.7
20260901044135 65 135 2.0 5.0 0.00 0.00 0.00 40 1021.6
20260901043634 65 135 0.0 1.0 0.00 0.00 0.00 40 1021.6
20260901043133 65 116 3.0 5.0 0.00 0.00 0.00 41 1021.5
20260901042635 64 135 2.0 5.0 0.00 0.00 0.00 41 1021.5
20260901042134 65 135 1.0 2.0 0.00 0.00 0.00 40 1021.2
20260901041634 66 135 2.0 5.0 0.00 0.00 0.00 39 1021.2
20260901041133 67 120 0.0 1.0 0.00 0.00 0.00 37 1021.2
20260901040633 68 158 3.0 5.0 0.00 0.00 0.00 35 1021.2
20260901035907 69 135 3.0 3.0 0.00 0.00 0.00 33 1021.0
20260901035406 69 138 1.0 3.0 0.00 0.00 0.00 32 1021.1
20260901034908 70 135 3.0 6.0 0.00 0.00 0.00 32 1021.0
20260901034407 71 135 7.0 10.0 0.00 0.00 0.00 32 1020.8
20260901033907 71 135 5.0 8.0 0.00 0.00 0.00 31 1020.6
20260901033408 71 135 12.0 15.0 0.00 0.00 0.00 31 1020.7
20260901032907 72 135 9.0 13.0 0.00 0.00 0.00 31 1020.6
20260901032407 72 135 10.0 17.0 0.00 0.00 0.00 31 1020.5
20260901031906 72 135 13.0 17.0 0.00 0.00 0.00 31 1020.5
20260901031407 72 135 10.0 20.0 0.00 0.00 0.00 31 1020.4
20260901030906 72 135 10.0 14.0 0.00 0.00 0.00 31 1020.5
20260901030408 72 135 9.0 17.0 0.00 0.00 0.00 31 1020.5
20260901025907 72 270 15.0 21.0 0.00 0.00 0.00 31 1020.5
20260901025406 72 227 13.0 17.0 0.00 0.00 0.00 31 1020.6
20260901024907 72 135 12.0 17.0 0.00 0.00 0.00 31 1020.6
20260901024406 72 135 14.0 23.0 0.00 0.00 0.00 30 1020.7
20260901023908 73 135 10.0 15.0 0.00 0.00 0.00 26 1020.6
20260901023407 74 135 15.0 20.0 0.00 0.00 0.00 25 1020.8
20260901022907 74 135 10.0 16.0 0.00 0.00 0.00 25 1020.8
20260901022406 74 315 10.0 18.0 0.00 0.00 0.00 25 1020.7
20260901021907 74 255 15.0 21.0 0.00 0.00 0.00 25 1020.9
20260901021407 74 292 14.0 18.0 0.00 0.00 0.00 24 1020.7
20260901020906 74 270 17.0 26.0 0.00 0.00 0.00 24 1020.9
20260901020408 74 265 12.0 18.0 0.00 0.00 0.00 25 1020.9
20260901015907 74 270 17.0 22.0 0.00 0.00 0.00 25 1020.9
20260901015406 74 270 12.0 20.0 0.00 0.00 0.00 25 1020.9
20260901014907 74 270 12.0 15.0 0.00 0.00 0.00 25 1021.0
20260901014407 74 195 10.0 15.0 0.00 0.00 0.00 25 1020.9
20260901013907 74 135 13.0 20.0 0.00 0.00 0.00 24 1021.1
20260901013407 74 135 13.0 20.0 0.00 0.00 0.00 25 1021.0
20260901012906 74 135 9.0 10.0 0.00 0.00 0.00 25 1021.0
20260901012408 73 135 12.0 18.0 0.00 0.00 0.00 25 1021.1
20260901011907 73 135 8.0 13.0 0.00 0.00 0.00 26 1021.0
20260901011407 73 137 6.0 8.0 0.00 0.00 0.00 26 1021.1
20260901010906 73 254 7.0 12.0 0.00 0.00 0.00 26 1021.1
20260901010409 73 270 15.0 21.0 0.00 0.00 0.00 26 1021.2
20260901005909 73 225 15.0 17.0 0.00 0.00 0.00 27 1021.2
20260901005408 73 270 8.0 10.0 0.00 0.00 0.00 26 1021.2
20260901004909 73 225 9.0 13.0 0.00 0.00 0.00 25 1021.3
20260901004408 74 305 9.0 13.0 0.00 0.00 0.00 25 1021.3
20260901003908 74 315 13.0 17.0 0.00 0.00 0.00 25 1021.4
20260901003409 73 260 12.0 15.0 0.00 0.00 0.00 27 1021.3
20260901002908 74 285 10.0 18.0 0.00 0.00 0.00 26 1021.4
20260901002409 74 296 9.0 15.0 0.00 0.00 0.00 27 1021.3
20260901001909 74 239 8.0 13.0 0.00 0.00 0.00 28 1021.2
20260901001408 73 305 10.0 15.0 0.00 0.00 0.00 28 1021.3
20260901000909 73 270 10.0 14.0 0.00 0.00 0.00 29 1021.4
20260901000408 73 267 9.0 13.0 0.00 0.00 0.00 28 1021.3
20260831235910 73 315 18.0 23.0 0.00 0.00 0.00 29 1021.3
20260831235409 73 270 10.0 13.0 0.00 0.00 0.00 30 1021.4
20260831234908 73 135 8.0 13.0 0.00 0.00 0.00 29 1021.4
20260831234409 74 302 9.0 13.0 0.00 0.00 0.00 28 1021.4
20260831233909 73 270 10.0 15.0 0.00 0.00 0.00 30 1021.4
20260831233409 73 307 6.0 10.0 0.00 0.00 0.00 29 1021.4
20260831232909 73 249 6.0 9.0 0.00 0.00 0.00 30 1021.4
20260831232408 74 308 2.0 10.0 0.00 0.00 0.00 29 1021.5
20260831231908 74 270 7.0 13.0 0.00 0.00 0.00 29 1021.3
20260831231410 74 270 6.0 9.0 0.00 0.00 0.00 29 1021.4
20260831230909 74 292 8.0 12.0 0.00 0.00 0.00 30 1021.4
20260831230409 74 175 9.0 13.0 0.00 0.00 0.00 30 1021.3
20260831225908 74 270 6.0 6.0 0.00 0.00 0.00 29 1021.4
20260831225409 74 221 6.0 12.0 0.00 0.00 0.00 29 1021.3
20260831224909 74 240 7.0 12.0 0.00 0.00 0.00 30 1021.2
20260831224408 74 276 10.0 15.0 0.00 0.00 0.00 30 1021.2
20260831223909 75 254 7.0 10.0 0.00 0.00 0.00 30 1021.2
20260831223409 74 284 7.0 13.0 0.00 0.00 0.00 30 1021.2
20260831222908 75 252 9.0 13.0 0.00 0.00 0.00 29 1021.2
20260831222410 75 270 8.0 13.0 0.00 0.00 0.00 30 1021.2
20260831221909 75 270 10.0 13.0 0.00 0.00 0.00 28 1021.2
20260831221408 75 305 10.0 15.0 0.00 0.00 0.00 30 1021.2
20260831220908 74 294 8.0 10.0 0.00 0.00 0.00 30 1021.1
20260831220409 75 281 10.0 14.0 0.00 0.00 0.00 30 1021.1
20260831215908 75 270 12.0 13.0 0.00 0.00 0.00 30 1021.3
20260831215410 75 257 8.0 13.0 0.00 0.00 0.00 30 1021.1
20260831214909 76 240 7.0 10.0 0.00 0.00 0.00 29 1021.1
20260831214408 76 145 12.0 15.0 0.00 0.00 0.00 29 1021.1
20260831213910 76 270 9.0 12.0 0.00 0.00 0.00 29 1021.0
20260831213409 76 270 12.0 15.0 0.00 0.00 0.00 30 1021.1
20260831212908 76 261 8.0 10.0 0.00 0.00 0.00 29 1021.0
20260831212408 77 270 6.0 8.0 0.00 0.00 0.00 27 1021.0
20260831211909 77 217 7.0 10.0 0.00 0.00 0.00 26 1020.8
20260831211409 77 299 8.0 15.0 0.00 0.00 0.00 28 1020.8
20260831210908 78 270 8.0 10.0 0.00 0.00 0.00 26 1020.9
20260831210410 78 270 5.0 8.0 0.00 0.00 0.00 26 1020.7
20260831205909 78 225 3.0 12.0 0.00 0.00 0.00 25 1020.8
20260831205408 78 317 7.0 13.0 0.00 0.00 0.00 26 1020.5
20260831204908 78 268 10.0 15.0 0.00 0.00 0.00 25 1020.6
20260831204409 78 270 8.0 9.0 0.00 0.00 0.00 25 1020.6
20260831203909 78 245 3.0 6.0 0.00 0.00 0.00 25 1020.4
20260831203408 78 225 1.0 8.0 0.00 0.00 0.00 26 1020.4
20260831202909 79 299 3.0 6.0 0.00 0.00 0.00 25 1020.4
20260831202409 79 263 2.0 8.0 0.00 0.00 0.00 25 1020.2
20260831201908 79 270 6.0 10.0 0.00 0.00 0.00 26 1020.1
20260831201410 79 280 7.0 9.0 0.00 0.00 0.00 25 1020.2
20260831200909 79 259 3.0 7.0 0.00 0.00 0.00 25 1020.1
20260831200409 80 235 6.0 9.0 0.00 0.00 0.00 24 1020.2
20260831195908 79 315 12.0 14.0 0.00 0.00 0.00 25 1020.1
20260831195409 79 261 6.0 8.0 0.00 0.00 0.00 25 1020.0
20260831194908 79 214 5.0 7.0 0.00 0.00 0.00 26 1019.9
20260831194409 80 314 6.0 8.0 0.00 0.00 0.00 23 1019.9
20260831193909 80 270 3.0 6.0 0.00 0.00 0.00 23 1019.7
20260831193408 80 135 6.0 7.0 0.00 0.00 0.00 24 1019.7
20260831192908 80 135 3.0 3.0 0.00 0.00 0.00 27 1019.6
20260831192409 81 135 2.0 3.0 0.00 0.00 0.00 25 1019.6
20260831191909 81 262 6.0 8.0 0.00 0.00 0.00 25 1019.5
20260831191408 81 188 9.0 14.0 0.00 0.00 0.00 24 1019.3
20260831190910 82 337 7.0 12.0 0.00 0.00 0.00 21 1019.4
20260831190409 82 270 3.0 6.0 0.00 0.00 0.00 21 1019.1
20260831185908 83 248 6.0 9.0 0.00 0.00 0.00 21 1019.1
20260831185409 82 266 12.0 17.0 0.00 0.00 0.00 21 1018.9
20260831184909 83 286 9.0 15.0 0.00 0.00 0.00 21 1018.8
20260831184408 83 283 6.0 9.0 0.00 0.00 0.00 21 1018.7
20260831183909 83 209 7.0 10.0 0.00 0.00 0.00 21 1018.6
20260831183408 84 282 9.0 17.0 0.00 0.00 0.00 20 1018.4
20260831182909 84 315 13.0 21.0 0.00 0.00 0.00 20 1018.5
20260831182408 84 315 13.0 17.0 0.00 0.00 0.00 20 1018.4
20260831181908 84 292 6.0 14.0 0.00 0.00 0.00 20 1018.4
20260831181409 85 341 13.0 17.0 0.00 0.00 0.00 20 1018.3
20260831180908 85 347 14.0 17.0 0.00 0.00 0.00 20 1018.2
20260831180409 85 315 13.0 20.0 0.00 0.00 0.00 20 1018.2
20260831175908 85 270 14.0 18.0 0.00 0.00 0.00 13 1018.2
20260831175408 85 267 8.0 15.0 0.00 0.00 0.00 13 1018.2
20260831174909 85 17 13.0 24.0 0.00 0.00 0.00 13 1018.1
20260831174408 85 315 9.0 17.0 0.00 0.00 0.00 13 1017.9
20260831173909 85 318 16.0 20.0 0.00 0.00 0.00 20 1018.0
20260831173409 86 256 9.0 14.0 0.00 0.00 0.00 13 1017.9
20260831172909 86 315 14.0 17.0 0.00 0.00 0.00 13 1017.8
20260831172409 86 322 9.0 16.0 0.00 0.00 0.00 13 1017.7
20260831171908 86 315 9.0 15.0 0.00 0.00 0.00 13 1017.9
20260831171408 87 315 10.0 16.0 0.00 0.00 0.00 13 1017.9
20260831170909 87 284 15.0 21.0 0.00 0.00 0.00 13 1017.8
20260831170408 88 315 16.0 21.0 0.00 0.00 0.00 13 1017.9
20260831165909 88 315 20.0 26.0 0.00 0.00 0.00 13 1017.9
20260831165409 88 343 12.0 18.0 0.00 0.00 0.00 20 1017.9
20260831164908 88 315 14.0 20.0 0.00 0.00 0.00 13 1017.8
20260831164408 89 232 10.0 23.0 0.00 0.00 0.00 13 1017.8
20260831163909 89 315 13.0 17.0 0.00 0.00 0.00 13 1017.9
20260831163408 89 311 13.0 17.0 0.00 0.00 0.00 13 1017.7
20260831162908 90 307 16.0 21.0 0.00 0.00 0.00 13 1017.8
20260831162407 90 339 10.0 17.0 0.00 0.00 0.00 13 1017.8
20260831161909 90 318 13.0 17.0 0.00 0.00 0.00 13 1017.8
20260831161408 90 315 13.0 18.0 0.00 0.00 0.00 13 1017.8
20260831160909 90 315 16.0 24.0 0.00 0.00 0.00 13 1017.9
20260831160408 90 312 14.0 20.0 0.00 0.00 0.00 13 1017.7
20260831155413 90 322 13.0 16.0 0.00 0.00 0.00 20 1017.8